{"data":{"norad_id":42831,"intl_designator":"2017-042G","name":"FLYING LAPTOP","alt_names":[],"object_type":"PAYLOAD","status":"ACTIVE","operator":null,"country":"GER","launch_date":"2017-07-14","launch_site_code":"TYMSC","launch_vehicle":null,"mission":null,"orbit_class":"UNKNOWN","rcs_meters":null,"size_class":null,"mass_kg":null,"dimensions":null,"purposes":["science","tech_demo"],"wikipedia_slug":null,"has_3d_model":false,"image_url":null,"decayed_at":null,"tle_current":{"epoch":"2026-05-25T04:29:47.732064Z","epoch_age_seconds":69291,"freshness":"FRESH","line1":"1 42831U 17042G   26145.18735801  .00002897  00000+0  23088-3 0  9992","line2":"2 42831  97.4591 301.6224 0018245 198.6078 161.4482 15.00971061483003","mean_motion":15.00971061,"eccentricity":0.0018245,"inclination_deg":97.4591,"raan_deg":301.6224,"arg_perigee_deg":198.6078,"mean_anomaly_deg":161.4482,"bstar":0.00023088,"rev_number":48300,"period_min":95.937892302908,"perigee_km":551.23485810913,"apogee_km":576.5663533324,"semimajor_km":6942.0376057208,"source":"CELESTRAK","updated_at":"2026-05-25T13:38:25.047631Z"}}}